Year,Month,Day,Hour,Minute,Value (Times are PST for temperature in C)
2019,05,11,00,00,16.80
2019,05,11,00,01,16.80
2019,05,11,00,02,16.80
2019,05,11,00,03,16.70
2019,05,11,00,04,16.70
2019,05,11,00,05,16.70
2019,05,11,00,06,16.70
2019,05,11,00,07,16.60
2019,05,11,00,08,16.60
2019,05,11,00,09,16.60
2019,05,11,00,10,16.60
2019,05,11,00,11,16.50
2019,05,11,00,12,16.50
2019,05,11,00,13,16.40
2019,05,11,00,14,16.40
2019,05,11,00,15,16.40
2019,05,11,00,16,16.40
2019,05,11,00,17,16.30
2019,05,11,00,18,16.30
2019,05,11,00,19,16.30
2019,05,11,00,20,16.20
2019,05,11,00,21,16.20
2019,05,11,00,22,16.20
2019,05,11,00,23,16.20
2019,05,11,00,24,16.10
2019,05,11,00,25,16.10
2019,05,11,00,26,16.10
2019,05,11,00,27,16.00
2019,05,11,00,28,16.00
2019,05,11,00,29,15.90
2019,05,11,00,30,15.90
2019,05,11,00,31,15.80
2019,05,11,00,32,15.80
2019,05,11,00,33,15.70
2019,05,11,00,34,15.70
2019,05,11,00,35,15.70
2019,05,11,00,36,15.70
2019,05,11,00,37,15.70
2019,05,11,00,38,15.60
2019,05,11,00,39,15.60
2019,05,11,00,40,15.60
2019,05,11,00,41,15.50
2019,05,11,00,42,15.50
2019,05,11,00,43,15.50
2019,05,11,00,44,15.40
2019,05,11,00,45,15.40
2019,05,11,00,46,15.40
2019,05,11,00,47,15.30
2019,05,11,00,48,15.30
2019,05,11,00,49,15.30
2019,05,11,00,50,15.30
2019,05,11,00,51,15.30
2019,05,11,00,52,15.30
2019,05,11,00,53,15.20
2019,05,11,00,54,15.20
2019,05,11,00,55,15.20
2019,05,11,00,56,15.20
2019,05,11,00,57,15.20
2019,05,11,00,58,15.10
2019,05,11,00,59,15.10
2019,05,11,01,00,15.10
2019,05,11,01,01,15.10
2019,05,11,01,02,15.10
2019,05,11,01,03,15.10
2019,05,11,01,04,15.00
2019,05,11,01,05,15.00
2019,05,11,01,06,15.00
2019,05,11,01,07,15.00
2019,05,11,01,08,14.90
2019,05,11,01,09,14.90
2019,05,11,01,10,14.90
2019,05,11,01,11,14.90
2019,05,11,01,12,14.90
2019,05,11,01,13,14.90
2019,05,11,01,14,14.90
2019,05,11,01,15,14.90
2019,05,11,01,16,14.80
2019,05,11,01,17,14.80
2019,05,11,01,18,14.80
2019,05,11,01,19,14.80
2019,05,11,01,20,14.80
2019,05,11,01,21,14.80
2019,05,11,01,22,14.80
2019,05,11,01,23,14.80
2019,05,11,01,24,14.70
2019,05,11,01,25,14.70
2019,05,11,01,26,14.70
2019,05,11,01,27,14.70
2019,05,11,01,28,14.70
2019,05,11,01,29,14.70
2019,05,11,01,30,14.70
2019,05,11,01,31,14.70
2019,05,11,01,32,14.70
2019,05,11,01,33,14.70
2019,05,11,01,34,14.70
2019,05,11,01,35,14.70
2019,05,11,01,36,14.70
2019,05,11,01,37,14.70
2019,05,11,01,38,14.70
2019,05,11,01,39,14.60
2019,05,11,01,40,14.70
2019,05,11,01,41,14.60
2019,05,11,01,42,14.60
2019,05,11,01,43,14.60
2019,05,11,01,44,14.60
2019,05,11,01,45,14.60
2019,05,11,01,46,14.60
2019,05,11,01,47,14.60
2019,05,11,01,48,14.60
2019,05,11,01,49,14.60
2019,05,11,01,50,14.50
2019,05,11,01,51,14.50
2019,05,11,01,52,14.50
2019,05,11,01,53,14.40
2019,05,11,01,54,14.40
2019,05,11,01,55,14.40
2019,05,11,01,56,14.40
2019,05,11,01,57,14.30
2019,05,11,01,58,14.30
2019,05,11,01,59,14.30
2019,05,11,02,00,14.30
2019,05,11,02,01,14.30
2019,05,11,02,02,14.20
2019,05,11,02,03,14.20
2019,05,11,02,04,14.20
2019,05,11,02,05,14.20
2019,05,11,02,06,14.20
2019,05,11,02,07,14.20
2019,05,11,02,08,14.20
2019,05,11,02,09,14.20
2019,05,11,02,10,14.20
2019,05,11,02,11,14.10
2019,05,11,02,12,14.10
2019,05,11,02,13,14.10
2019,05,11,02,14,14.10
2019,05,11,02,15,14.10
2019,05,11,02,16,14.10
2019,05,11,02,17,14.10
2019,05,11,02,18,14.10
2019,05,11,02,19,14.10
2019,05,11,02,20,14.10
2019,05,11,02,21,14.10
2019,05,11,02,22,14.20
2019,05,11,02,23,14.20
2019,05,11,02,24,14.20
2019,05,11,02,25,14.20
2019,05,11,02,26,14.20
2019,05,11,02,27,14.20
2019,05,11,02,28,14.30
2019,05,11,02,29,14.30
2019,05,11,02,30,14.30
2019,05,11,02,31,14.30
2019,05,11,02,32,14.30
2019,05,11,02,33,14.30
2019,05,11,02,34,14.30
2019,05,11,02,35,14.30
2019,05,11,02,36,14.30
2019,05,11,02,37,14.30
2019,05,11,02,38,14.30
2019,05,11,02,39,14.30
2019,05,11,02,40,14.30
2019,05,11,02,41,14.30
2019,05,11,02,42,14.30
2019,05,11,02,43,14.30
2019,05,11,02,44,14.30
2019,05,11,02,45,14.30
2019,05,11,02,46,14.30
2019,05,11,02,47,14.20
2019,05,11,02,48,14.20
2019,05,11,02,49,14.20
2019,05,11,02,50,14.20
2019,05,11,02,51,14.20
2019,05,11,02,52,14.10
2019,05,11,02,53,14.10
2019,05,11,02,54,14.10
2019,05,11,02,55,14.10
2019,05,11,02,56,14.00
2019,05,11,02,57,14.10
2019,05,11,02,58,14.00
2019,05,11,02,59,14.00
2019,05,11,03,00,14.00
2019,05,11,03,01,14.10
2019,05,11,03,02,14.10
2019,05,11,03,03,14.10
2019,05,11,03,04,14.10
2019,05,11,03,05,14.10
2019,05,11,03,06,14.10
2019,05,11,03,07,14.10
2019,05,11,03,08,14.10
2019,05,11,03,09,14.10
2019,05,11,03,10,14.10
2019,05,11,03,11,14.10
2019,05,11,03,12,14.10
2019,05,11,03,13,14.10
2019,05,11,03,14,14.10
2019,05,11,03,15,14.10
2019,05,11,03,16,14.10
2019,05,11,03,17,14.10
2019,05,11,03,18,14.10
2019,05,11,03,19,14.10
2019,05,11,03,20,14.00
2019,05,11,03,21,14.10
2019,05,11,03,22,14.10
2019,05,11,03,23,14.10
2019,05,11,03,24,14.10
2019,05,11,03,25,14.10
2019,05,11,03,26,14.10
2019,05,11,03,27,14.10
2019,05,11,03,28,14.00
2019,05,11,03,29,14.00
2019,05,11,03,30,14.00
2019,05,11,03,31,13.90
2019,05,11,03,32,13.90
2019,05,11,03,33,13.90
2019,05,11,03,34,13.80
2019,05,11,03,35,13.80
2019,05,11,03,36,13.80
2019,05,11,03,37,13.80
2019,05,11,03,38,13.80
2019,05,11,03,39,13.80
2019,05,11,03,40,13.70
2019,05,11,03,41,13.70
2019,05,11,03,42,13.70
2019,05,11,03,43,13.70
2019,05,11,03,44,13.70
2019,05,11,03,45,13.70
2019,05,11,03,46,13.70
2019,05,11,03,47,13.70
2019,05,11,03,48,13.60
2019,05,11,03,49,13.60
2019,05,11,03,50,13.60
2019,05,11,03,51,13.60
2019,05,11,03,52,13.60
2019,05,11,03,53,13.50
2019,05,11,03,54,13.50
2019,05,11,03,55,13.50
2019,05,11,03,56,13.40
2019,05,11,03,57,13.40
2019,05,11,03,58,13.40
2019,05,11,03,59,13.40
2019,05,11,04,00,13.40
2019,05,11,04,01,13.40
2019,05,11,04,02,13.40
2019,05,11,04,03,13.30
2019,05,11,04,04,13.30
2019,05,11,04,05,13.40
2019,05,11,04,06,13.30
2019,05,11,04,07,13.30
2019,05,11,04,08,13.30
2019,05,11,04,09,13.30
2019,05,11,04,10,13.30
2019,05,11,04,11,13.20
2019,05,11,04,12,13.20
2019,05,11,04,13,13.20
2019,05,11,04,14,13.20
2019,05,11,04,15,13.20
2019,05,11,04,16,13.20
2019,05,11,04,17,13.20
2019,05,11,04,18,13.10
2019,05,11,04,19,13.10
2019,05,11,04,20,13.10
2019,05,11,04,21,13.10
2019,05,11,04,22,13.00
2019,05,11,04,23,13.00
2019,05,11,04,24,13.00
2019,05,11,04,25,12.90
2019,05,11,04,26,12.90
2019,05,11,04,27,12.90
2019,05,11,04,28,12.90
2019,05,11,04,29,12.90
2019,05,11,04,30,12.90
2019,05,11,04,31,12.80
2019,05,11,04,32,12.80
2019,05,11,04,33,12.80
2019,05,11,04,34,12.80
2019,05,11,04,35,12.80
2019,05,11,04,36,12.80
2019,05,11,04,37,12.80
2019,05,11,04,38,12.80
2019,05,11,04,39,12.80
2019,05,11,04,40,12.70
2019,05,11,04,41,12.70
2019,05,11,04,42,12.70
2019,05,11,04,43,12.70
2019,05,11,04,44,12.60
2019,05,11,04,45,12.60
2019,05,11,04,46,12.60
2019,05,11,04,47,12.60
2019,05,11,04,48,12.60
2019,05,11,04,49,12.60
2019,05,11,04,50,12.60
2019,05,11,04,51,12.60
2019,05,11,04,52,12.60
2019,05,11,04,53,12.60
2019,05,11,04,54,12.60
2019,05,11,04,55,12.60
2019,05,11,04,56,12.60
2019,05,11,04,57,12.70
2019,05,11,04,58,12.60
2019,05,11,04,59,12.60
2019,05,11,05,00,12.60
2019,05,11,05,01,12.60
2019,05,11,05,02,12.60
2019,05,11,05,03,12.60
2019,05,11,05,04,12.60
2019,05,11,05,05,12.60
2019,05,11,05,06,12.60
2019,05,11,05,07,12.50
2019,05,11,05,08,12.50
2019,05,11,05,09,12.50
2019,05,11,05,10,12.60
2019,05,11,05,11,12.60
2019,05,11,05,12,12.60
2019,05,11,05,13,12.60
2019,05,11,05,14,12.60
2019,05,11,05,15,12.60
2019,05,11,05,16,12.60
2019,05,11,05,17,12.60
2019,05,11,05,18,12.60
2019,05,11,05,19,12.60
2019,05,11,05,20,12.60
2019,05,11,05,21,12.70
2019,05,11,05,22,12.70
2019,05,11,05,23,12.70
2019,05,11,05,24,12.70
2019,05,11,05,25,12.70
2019,05,11,05,26,12.80
2019,05,11,05,27,12.80
2019,05,11,05,28,12.80
2019,05,11,05,29,12.80
2019,05,11,05,30,12.90
2019,05,11,05,31,12.90
2019,05,11,05,32,12.90
2019,05,11,05,33,13.00
2019,05,11,05,34,13.00
2019,05,11,05,35,13.00
2019,05,11,05,36,13.10
2019,05,11,05,37,13.10
2019,05,11,05,38,13.10
2019,05,11,05,39,13.10
2019,05,11,05,40,13.10
2019,05,11,05,41,13.10
2019,05,11,05,42,13.20
2019,05,11,05,43,13.20
2019,05,11,05,44,13.20
2019,05,11,05,45,13.20
2019,05,11,05,46,13.20
2019,05,11,05,47,13.20
2019,05,11,05,48,13.20
2019,05,11,05,49,13.20
2019,05,11,05,50,13.20
2019,05,11,05,51,13.20
2019,05,11,05,52,13.30
2019,05,11,05,53,13.30
2019,05,11,05,54,13.30
2019,05,11,05,55,13.30
2019,05,11,05,56,13.30
2019,05,11,05,57,13.30
2019,05,11,05,58,13.30
2019,05,11,05,59,13.30
2019,05,11,06,00,13.30
2019,05,11,06,01,13.30
2019,05,11,06,02,13.30
2019,05,11,06,03,13.20
2019,05,11,06,04,13.20
2019,05,11,06,05,13.20
2019,05,11,06,06,13.20
2019,05,11,06,07,13.20
2019,05,11,06,08,13.20
2019,05,11,06,09,13.20
2019,05,11,06,10,13.20
2019,05,11,06,11,13.20
2019,05,11,06,12,13.20
2019,05,11,06,13,13.20
2019,05,11,06,14,13.20
2019,05,11,06,15,13.20
2019,05,11,06,16,13.20
2019,05,11,06,17,13.20
2019,05,11,06,18,13.10
2019,05,11,06,19,13.10
2019,05,11,06,20,13.10
2019,05,11,06,21,13.10
2019,05,11,06,22,13.10
2019,05,11,06,23,13.00
2019,05,11,06,24,13.00
2019,05,11,06,25,13.00
2019,05,11,06,26,13.00
2019,05,11,06,27,13.00
2019,05,11,06,28,13.10
2019,05,11,06,29,13.10
2019,05,11,06,30,13.10
2019,05,11,06,31,13.10
2019,05,11,06,32,13.00
2019,05,11,06,33,13.10
2019,05,11,06,34,13.10
2019,05,11,06,35,13.10
2019,05,11,06,36,13.10
2019,05,11,06,37,13.20
2019,05,11,06,38,13.20
2019,05,11,06,39,13.20
2019,05,11,06,40,13.30
2019,05,11,06,41,13.30
2019,05,11,06,42,13.30
2019,05,11,06,43,13.40
2019,05,11,06,44,13.40
2019,05,11,06,45,13.40
2019,05,11,06,46,13.40
2019,05,11,06,47,13.40
2019,05,11,06,48,13.40
2019,05,11,06,49,13.40
2019,05,11,06,50,13.40
2019,05,11,06,51,13.40
2019,05,11,06,52,13.40
2019,05,11,06,53,13.30
2019,05,11,06,54,13.30
2019,05,11,06,55,13.30
2019,05,11,06,56,13.30
2019,05,11,06,57,13.30
2019,05,11,06,58,13.30
2019,05,11,06,59,13.30
2019,05,11,07,00,13.30
2019,05,11,07,01,13.30
2019,05,11,07,02,13.30
2019,05,11,07,03,13.30
2019,05,11,07,04,13.30
2019,05,11,07,05,13.30
2019,05,11,07,06,13.30
2019,05,11,07,07,13.30
2019,05,11,07,08,13.30
2019,05,11,07,09,13.40
2019,05,11,07,10,13.40
2019,05,11,07,11,13.40
2019,05,11,07,12,13.40
2019,05,11,07,13,13.30
2019,05,11,07,14,13.30
2019,05,11,07,15,13.20
2019,05,11,07,16,13.20
2019,05,11,07,17,13.10
2019,05,11,07,18,13.10
2019,05,11,07,19,13.10
2019,05,11,07,20,13.10
2019,05,11,07,21,13.20
2019,05,11,07,22,13.20
2019,05,11,07,23,13.20
2019,05,11,07,24,13.30
2019,05,11,07,25,13.40
2019,05,11,07,26,13.40
2019,05,11,07,27,13.50
2019,05,11,07,28,13.50
2019,05,11,07,29,13.60
2019,05,11,07,30,13.70
2019,05,11,07,31,13.70
2019,05,11,07,32,13.80
2019,05,11,07,33,13.80
2019,05,11,07,34,13.80
2019,05,11,07,35,13.80
2019,05,11,07,36,13.80
2019,05,11,07,37,13.80
2019,05,11,07,38,13.70
2019,05,11,07,39,13.70
2019,05,11,07,40,13.70
2019,05,11,07,41,13.70
2019,05,11,07,42,13.70
2019,05,11,07,43,13.70
2019,05,11,07,44,13.70
2019,05,11,07,45,13.70
2019,05,11,07,46,13.70
2019,05,11,07,47,13.70
2019,05,11,07,48,13.70
2019,05,11,07,49,13.70
2019,05,11,07,50,13.70
2019,05,11,07,51,13.70
2019,05,11,07,52,13.70
2019,05,11,07,53,13.70
2019,05,11,07,54,13.80
2019,05,11,07,55,13.80
2019,05,11,07,56,13.80
2019,05,11,07,57,13.80
2019,05,11,07,58,13.80
2019,05,11,07,59,13.80
2019,05,11,08,00,13.80
2019,05,11,08,01,13.80
2019,05,11,08,02,13.80
2019,05,11,08,03,13.70
2019,05,11,08,04,13.70
2019,05,11,08,05,13.70
2019,05,11,08,06,13.70
2019,05,11,08,07,13.70
2019,05,11,08,08,13.70
2019,05,11,08,09,13.70
2019,05,11,08,10,13.70
2019,05,11,08,11,13.70
2019,05,11,08,12,13.70
2019,05,11,08,13,13.70
2019,05,11,08,14,13.70
2019,05,11,08,15,13.70
2019,05,11,08,16,13.70
2019,05,11,08,17,13.70
2019,05,11,08,18,13.70
2019,05,11,08,19,13.70
2019,05,11,08,20,13.80
2019,05,11,08,21,13.80
2019,05,11,08,22,13.80
2019,05,11,08,23,13.80
2019,05,11,08,24,13.80
2019,05,11,08,25,13.80
2019,05,11,08,26,13.80
2019,05,11,08,27,13.90
2019,05,11,08,28,13.90
2019,05,11,08,29,13.90
2019,05,11,08,30,13.90
2019,05,11,08,31,14.00
2019,05,11,08,32,14.00
2019,05,11,08,33,14.00
2019,05,11,08,34,14.00
2019,05,11,08,35,14.00
2019,05,11,08,36,14.00
2019,05,11,08,37,14.00
2019,05,11,08,38,14.10
2019,05,11,08,39,14.00
2019,05,11,08,40,14.10
2019,05,11,08,41,14.00
2019,05,11,08,42,14.00
2019,05,11,08,43,14.00
2019,05,11,08,44,14.00
2019,05,11,08,45,14.00
2019,05,11,08,46,14.00
2019,05,11,08,47,14.00
2019,05,11,08,48,14.00
2019,05,11,08,49,14.00
2019,05,11,08,50,14.00
2019,05,11,08,51,14.00
2019,05,11,08,52,14.00
2019,05,11,08,53,14.00
2019,05,11,08,54,14.00
2019,05,11,08,55,14.00
2019,05,11,08,56,14.00
2019,05,11,08,57,14.00
2019,05,11,08,58,14.00
2019,05,11,08,59,14.00
2019,05,11,09,00,14.10
2019,05,11,09,01,14.10
2019,05,11,09,02,14.10
2019,05,11,09,03,14.10
2019,05,11,09,04,14.20
2019,05,11,09,05,14.20
2019,05,11,09,06,14.20
2019,05,11,09,07,14.30
2019,05,11,09,08,14.30
2019,05,11,09,09,14.30
2019,05,11,09,10,14.40
2019,05,11,09,11,14.40
2019,05,11,09,12,14.40
2019,05,11,09,13,14.50
2019,05,11,09,14,14.50
2019,05,11,09,15,14.60
2019,05,11,09,16,14.60
2019,05,11,09,17,14.60
2019,05,11,09,18,14.60
2019,05,11,09,19,14.70
2019,05,11,09,20,14.70
2019,05,11,09,21,14.80
2019,05,11,09,22,14.80
2019,05,11,09,23,14.80
2019,05,11,09,24,14.90
2019,05,11,09,25,14.90
2019,05,11,09,26,14.90
2019,05,11,09,27,14.90
2019,05,11,09,28,15.00
2019,05,11,09,29,15.00
2019,05,11,09,30,15.10
2019,05,11,09,31,15.20
2019,05,11,09,32,15.40
2019,05,11,09,33,15.60
2019,05,11,09,34,15.80
2019,05,11,09,35,15.90
2019,05,11,09,36,16.00
2019,05,11,09,37,16.00
2019,05,11,09,38,16.10
2019,05,11,09,39,16.10
2019,05,11,09,40,16.10
2019,05,11,09,41,16.10
2019,05,11,09,42,16.10
2019,05,11,09,43,16.10
2019,05,11,09,44,16.20
2019,05,11,09,45,16.20
2019,05,11,09,46,16.30
2019,05,11,09,47,16.30
2019,05,11,09,48,16.40
2019,05,11,09,49,16.60
2019,05,11,09,50,16.60
2019,05,11,09,51,16.70
2019,05,11,09,52,16.80
2019,05,11,09,53,16.80
2019,05,11,09,54,16.90
2019,05,11,09,55,17.00
2019,05,11,09,56,17.10
2019,05,11,09,57,17.20
2019,05,11,09,58,17.20
2019,05,11,09,59,17.30
2019,05,11,10,00,17.40
2019,05,11,10,01,17.50
2019,05,11,10,02,17.60
2019,05,11,10,03,17.60
2019,05,11,10,04,17.60
2019,05,11,10,05,17.60
2019,05,11,10,06,17.70
2019,05,11,10,07,17.70
2019,05,11,10,08,17.70
2019,05,11,10,09,17.70
2019,05,11,10,10,17.70
2019,05,11,10,11,17.70
2019,05,11,10,12,17.70
2019,05,11,10,13,17.70
2019,05,11,10,14,17.80
2019,05,11,10,15,17.80
2019,05,11,10,16,17.90
2019,05,11,10,17,18.00
2019,05,11,10,18,18.00
2019,05,11,10,19,18.10
2019,05,11,10,20,18.10
2019,05,11,10,21,18.20
2019,05,11,10,22,18.20
2019,05,11,10,23,18.30
2019,05,11,10,24,18.40
2019,05,11,10,25,18.40
2019,05,11,10,26,18.50
2019,05,11,10,27,18.60
2019,05,11,10,28,18.70
2019,05,11,10,29,18.70
2019,05,11,10,30,18.80
2019,05,11,10,31,18.90
2019,05,11,10,32,19.00
2019,05,11,10,33,19.10
2019,05,11,10,34,19.20
2019,05,11,10,35,19.20
2019,05,11,10,36,19.20
2019,05,11,10,37,19.10
2019,05,11,10,38,19.10
2019,05,11,10,39,19.10
2019,05,11,10,40,19.10
2019,05,11,10,41,19.00
2019,05,11,10,42,19.00
2019,05,11,10,43,19.00
2019,05,11,10,44,18.90
2019,05,11,10,45,18.90
2019,05,11,10,46,19.00
2019,05,11,10,47,19.00
2019,05,11,10,48,19.00
2019,05,11,10,49,19.00
2019,05,11,10,50,19.10
2019,05,11,10,51,19.10
2019,05,11,10,52,19.20
2019,05,11,10,53,19.30
2019,05,11,10,54,19.30
2019,05,11,10,55,19.40
2019,05,11,10,56,19.40
2019,05,11,10,57,19.50
2019,05,11,10,58,19.60
2019,05,11,10,59,19.70
2019,05,11,11,00,19.70
2019,05,11,11,01,19.80
2019,05,11,11,02,19.80
2019,05,11,11,03,19.80
2019,05,11,11,04,19.80
2019,05,11,11,05,19.90
2019,05,11,11,06,19.90
2019,05,11,11,07,19.90
2019,05,11,11,08,19.90
2019,05,11,11,09,20.00
2019,05,11,11,10,20.00
2019,05,11,11,11,20.00
2019,05,11,11,12,20.00
2019,05,11,11,13,19.90
2019,05,11,11,14,19.90
2019,05,11,11,15,19.90
2019,05,11,11,16,20.00
2019,05,11,11,17,20.00
2019,05,11,11,18,20.00
2019,05,11,11,19,20.00
2019,05,11,11,20,20.00
2019,05,11,11,21,20.00
2019,05,11,11,22,20.00
2019,05,11,11,23,20.00
2019,05,11,11,24,19.90
2019,05,11,11,25,20.00
2019,05,11,11,26,20.00
2019,05,11,11,27,20.00
2019,05,11,11,28,20.00
2019,05,11,11,29,20.00
2019,05,11,11,30,20.00
2019,05,11,11,31,20.00
2019,05,11,11,32,20.00
2019,05,11,11,33,20.10
2019,05,11,11,34,20.10
2019,05,11,11,35,20.10
2019,05,11,11,36,20.10
2019,05,11,11,37,20.10
2019,05,11,11,38,20.10
2019,05,11,11,39,20.00
2019,05,11,11,40,19.90
2019,05,11,11,41,19.80
2019,05,11,11,42,19.70
2019,05,11,11,43,19.70
2019,05,11,11,44,19.60
2019,05,11,11,45,19.60
2019,05,11,11,46,19.60
2019,05,11,11,47,19.60
2019,05,11,11,48,19.60
2019,05,11,11,49,19.60
2019,05,11,11,50,19.60
2019,05,11,11,51,19.60
2019,05,11,11,52,19.70
2019,05,11,11,53,19.70
2019,05,11,11,54,19.70
2019,05,11,11,55,19.60
2019,05,11,11,56,19.60
2019,05,11,11,57,19.60
2019,05,11,11,58,19.60
2019,05,11,11,59,19.60
2019,05,11,12,00,19.60
2019,05,11,12,01,19.60
2019,05,11,12,02,19.50
2019,05,11,12,03,19.50
2019,05,11,12,04,19.50
2019,05,11,12,05,19.40
2019,05,11,12,06,19.40
2019,05,11,12,07,19.40
2019,05,11,12,08,19.40
2019,05,11,12,09,19.50
2019,05,11,12,10,19.60
2019,05,11,12,11,19.70
2019,05,11,12,12,19.80
2019,05,11,12,13,20.00
2019,05,11,12,14,20.10
2019,05,11,12,15,20.20
2019,05,11,12,16,20.30
2019,05,11,12,17,20.40
2019,05,11,12,18,20.40
2019,05,11,12,19,20.50
2019,05,11,12,20,20.50
2019,05,11,12,21,20.60
2019,05,11,12,22,20.60
2019,05,11,12,23,20.70
2019,05,11,12,24,20.70
2019,05,11,12,25,20.70
2019,05,11,12,26,20.80
2019,05,11,12,27,20.80
2019,05,11,12,28,20.90
2019,05,11,12,29,20.90
2019,05,11,12,30,21.00
2019,05,11,12,31,21.00
2019,05,11,12,32,21.00
2019,05,11,12,33,21.00
2019,05,11,12,34,21.00
2019,05,11,12,35,21.00
2019,05,11,12,36,20.90
2019,05,11,12,37,20.80
2019,05,11,12,38,20.80
2019,05,11,12,39,20.80
2019,05,11,12,40,20.70
2019,05,11,12,41,20.60
2019,05,11,12,42,20.60
2019,05,11,12,43,20.60
2019,05,11,12,44,20.60
2019,05,11,12,45,20.60
2019,05,11,12,46,20.60
2019,05,11,12,47,20.60
2019,05,11,12,48,20.70
2019,05,11,12,49,20.90
2019,05,11,12,50,21.00
2019,05,11,12,51,21.10
2019,05,11,12,52,21.20
2019,05,11,12,53,21.30
2019,05,11,12,54,21.40
2019,05,11,12,55,21.40
2019,05,11,12,56,21.50
2019,05,11,12,57,21.60
2019,05,11,12,58,21.60
2019,05,11,12,59,21.70
2019,05,11,13,00,21.80
2019,05,11,13,01,21.80
2019,05,11,13,02,21.90
2019,05,11,13,03,21.90
2019,05,11,13,04,21.90
2019,05,11,13,05,21.90
2019,05,11,13,06,21.90
2019,05,11,13,07,21.80
2019,05,11,13,08,21.70
2019,05,11,13,09,21.70
2019,05,11,13,10,21.60
2019,05,11,13,11,21.50
2019,05,11,13,12,21.40
2019,05,11,13,13,21.40
2019,05,11,13,14,21.30
2019,05,11,13,15,21.30
2019,05,11,13,16,21.30
2019,05,11,13,17,21.20
2019,05,11,13,18,21.10
2019,05,11,13,19,21.10
2019,05,11,13,20,21.00
2019,05,11,13,21,21.00
2019,05,11,13,22,21.10
2019,05,11,13,23,21.10
2019,05,11,13,24,21.10
2019,05,11,13,25,21.10
2019,05,11,13,26,21.10
2019,05,11,13,27,21.10
2019,05,11,13,28,21.10
2019,05,11,13,29,21.10
2019,05,11,13,30,21.10
2019,05,11,13,31,21.20
2019,05,11,13,32,21.20
2019,05,11,13,33,21.30
2019,05,11,13,34,21.30
2019,05,11,13,35,21.30
2019,05,11,13,36,21.40
2019,05,11,13,37,21.40
2019,05,11,13,38,21.40
2019,05,11,13,39,21.50
2019,05,11,13,40,21.60
2019,05,11,13,41,21.60
2019,05,11,13,42,21.60
2019,05,11,13,43,21.60
2019,05,11,13,44,21.70
2019,05,11,13,45,21.70
2019,05,11,13,46,21.80
2019,05,11,13,47,21.80
2019,05,11,13,48,21.80
2019,05,11,13,49,21.80
2019,05,11,13,50,21.80
2019,05,11,13,51,21.70
2019,05,11,13,52,21.70
2019,05,11,13,53,21.70
2019,05,11,13,54,21.70
2019,05,11,13,55,21.70
2019,05,11,13,56,21.80
2019,05,11,13,57,21.80
2019,05,11,13,58,21.80
2019,05,11,13,59,21.80
2019,05,11,14,00,21.80
2019,05,11,14,01,21.80
2019,05,11,14,02,21.80
2019,05,11,14,03,21.90
2019,05,11,14,04,22.00
2019,05,11,14,05,22.00
2019,05,11,14,06,22.00
2019,05,11,14,07,22.00
2019,05,11,14,08,22.00
2019,05,11,14,09,22.00
2019,05,11,14,10,22.00
2019,05,11,14,11,22.00
2019,05,11,14,12,21.90
2019,05,11,14,13,21.90
2019,05,11,14,14,21.90
2019,05,11,14,15,22.00
2019,05,11,14,16,22.10
2019,05,11,14,17,22.20
2019,05,11,14,18,22.30
2019,05,11,14,19,22.30
2019,05,11,14,20,22.40
2019,05,11,14,21,22.40
2019,05,11,14,22,22.50
2019,05,11,14,23,22.50
2019,05,11,14,24,22.60
2019,05,11,14,25,22.60
2019,05,11,14,26,22.60
2019,05,11,14,27,22.60
2019,05,11,14,28,22.70
2019,05,11,14,29,22.70
2019,05,11,14,30,22.80
2019,05,11,14,31,22.80
2019,05,11,14,32,22.80
2019,05,11,14,33,22.80
2019,05,11,14,34,22.80
2019,05,11,14,35,22.90
2019,05,11,14,36,22.80
2019,05,11,14,37,22.60
2019,05,11,14,38,22.50
2019,05,11,14,39,22.40
2019,05,11,14,40,22.30
2019,05,11,14,41,22.20
2019,05,11,14,42,22.10
2019,05,11,14,43,22.10
2019,05,11,14,44,22.00
2019,05,11,14,45,21.90
2019,05,11,14,46,21.90
2019,05,11,14,47,21.90
2019,05,11,14,48,21.80
2019,05,11,14,49,21.80
2019,05,11,14,50,21.80
2019,05,11,14,51,21.70
2019,05,11,14,52,21.70
2019,05,11,14,53,21.60
2019,05,11,14,54,21.60
2019,05,11,14,55,21.60
2019,05,11,14,56,21.60
2019,05,11,14,57,21.50
2019,05,11,14,58,21.40
2019,05,11,14,59,21.40
2019,05,11,15,00,21.40
2019,05,11,15,01,21.40
2019,05,11,15,02,21.40
2019,05,11,15,03,21.40
2019,05,11,15,04,21.50
2019,05,11,15,05,21.50
2019,05,11,15,06,21.60
2019,05,11,15,07,21.60
2019,05,11,15,08,21.60
2019,05,11,15,09,21.60
2019,05,11,15,10,21.50
2019,05,11,15,11,21.50
2019,05,11,15,12,21.50
2019,05,11,15,13,21.50
2019,05,11,15,14,21.40
2019,05,11,15,15,21.40
2019,05,11,15,16,21.30
2019,05,11,15,17,21.40
2019,05,11,15,18,21.40
2019,05,11,15,19,21.40
2019,05,11,15,20,21.40
2019,05,11,15,21,21.40
2019,05,11,15,22,21.40
2019,05,11,15,23,21.40
2019,05,11,15,24,21.40
2019,05,11,15,25,21.40
2019,05,11,15,26,21.40
2019,05,11,15,27,21.40
2019,05,11,15,28,21.40
2019,05,11,15,29,21.40
2019,05,11,15,30,21.40
2019,05,11,15,31,21.40
2019,05,11,15,32,21.40
2019,05,11,15,33,21.40
2019,05,11,15,34,21.40
2019,05,11,15,35,21.40
2019,05,11,15,36,21.30
2019,05,11,15,37,21.30
2019,05,11,15,38,21.30
2019,05,11,15,39,21.30
2019,05,11,15,40,21.30
2019,05,11,15,41,21.30
2019,05,11,15,42,21.30
2019,05,11,15,43,21.30
2019,05,11,15,44,21.30
2019,05,11,15,45,21.30
2019,05,11,15,46,21.40
2019,05,11,15,47,21.40
2019,05,11,15,48,21.40
2019,05,11,15,49,21.50
2019,05,11,15,50,21.50
2019,05,11,15,51,21.50
2019,05,11,15,52,21.60
2019,05,11,15,53,21.60
2019,05,11,15,54,21.70
2019,05,11,15,55,21.70
2019,05,11,15,56,21.80
2019,05,11,15,57,21.90
2019,05,11,15,58,21.90
2019,05,11,15,59,22.00
2019,05,11,16,00,22.10
2019,05,11,16,01,22.10
2019,05,11,16,02,22.10
2019,05,11,16,03,22.10
2019,05,11,16,04,22.20
2019,05,11,16,05,22.30
2019,05,11,16,06,22.30
2019,05,11,16,07,22.40
2019,05,11,16,08,22.40
2019,05,11,16,09,22.50
2019,05,11,16,10,22.60
2019,05,11,16,11,22.60
2019,05,11,16,12,22.70
2019,05,11,16,13,22.80
2019,05,11,16,14,22.80
2019,05,11,16,15,22.90
2019,05,11,16,16,23.00
2019,05,11,16,17,23.10
2019,05,11,16,18,23.10
2019,05,11,16,19,23.20
2019,05,11,16,20,23.30
2019,05,11,16,21,23.40
2019,05,11,16,22,23.50
2019,05,11,16,23,23.50
2019,05,11,16,24,23.40
2019,05,11,16,25,23.40
2019,05,11,16,26,23.20
2019,05,11,16,27,23.00
2019,05,11,16,28,22.80
2019,05,11,16,29,22.50
2019,05,11,16,30,22.30
2019,05,11,16,31,22.20
2019,05,11,16,32,22.00
2019,05,11,16,33,21.90
2019,05,11,16,34,21.90
2019,05,11,16,35,21.90
2019,05,11,16,36,21.90
2019,05,11,16,37,21.90
2019,05,11,16,38,21.90
2019,05,11,16,39,22.00
2019,05,11,16,40,22.10
2019,05,11,16,41,22.10
2019,05,11,16,42,22.10
2019,05,11,16,43,22.10
2019,05,11,16,44,22.20
2019,05,11,16,45,22.20
2019,05,11,16,46,22.20
2019,05,11,16,47,22.20
2019,05,11,16,48,22.20
2019,05,11,16,49,22.20
2019,05,11,16,50,22.10
2019,05,11,16,51,22.00
2019,05,11,16,52,21.90
2019,05,11,16,53,21.80
2019,05,11,16,54,21.80
2019,05,11,16,55,21.80
2019,05,11,16,56,21.70
2019,05,11,16,57,21.70
2019,05,11,16,58,21.70
2019,05,11,16,59,21.70
2019,05,11,17,00,21.70
2019,05,11,17,01,21.70
2019,05,11,17,02,21.60
2019,05,11,17,03,21.60
2019,05,11,17,04,21.50
2019,05,11,17,05,21.50
2019,05,11,17,06,21.40
2019,05,11,17,07,21.40
2019,05,11,17,08,21.30
2019,05,11,17,09,21.30
2019,05,11,17,10,21.30
2019,05,11,17,11,21.20
2019,05,11,17,12,21.20
2019,05,11,17,13,21.20
2019,05,11,17,14,21.20
2019,05,11,17,15,21.10
2019,05,11,17,16,21.10
2019,05,11,17,17,21.00
2019,05,11,17,18,21.00
2019,05,11,17,19,20.90